STARLINK-3077, 49133

Orbit data source: Space-Track

STARLINK-3077, 49133 is a payload satellite owned by SpaceX/Seattle (US) in LEO that was launched on Tue, 14 Sep 2021 UTC via an FALCON 9 launch vehicle from the Air Force Western Test Range (AFWTR). Payload-class satellites include a variety of spacecraft equipped with specific instruments for various scientific and technological missions. These include communications satellites like Starlink; space stations such as the ISS; scientific satellites like the Hubble; Earth observation satellites from companies like Planet Labs, Umbra, and HawkEye 360; GPS; miniature CubeSats for education and research; and military/defense satellites.

Loading next visibility...
Identifier
49133, 2021-082D
Orbit
LEO
Country
Flag of USUS
Related business
Manufacturer
SpaceX/Seattle
Mission
Operational Commercial Communications
Bus & Motor
STARLINK, Unknown motor
Mass
297 kg wet, ~275 kg dry
Launch date (UTC)
2021-09-14 (5 years ago)
Launch vehicle
FALCON 9
Launch site
Air Force Western Test Range (AFWTR)
Object type
Payload
Rocket body
Debris
Shape & HBR
Box + 1 Pan, 10.1 m
Radar Cross Section
13.562 m², Large (>1 m²)

Expand to show TLE details & history
Last TLE update: 14 hours ago

TLE from 14 hours ago
0 STARLINK-3077
1 49133U 21082D   26125.40151755  .00000033  00000-0  10532-4 0  9998
2 49133  69.9993 151.4674 0003711 267.4210  92.6524 14.98328975254475
Epoch: 2026-05-05T09:38Z
TLE epoch observation values (Epoch: 2026-05-05T09:38:11.116Z)
Latitude
-0.00004°
Longitude
143.64418°
Altitude
574.603 km
Speed
7.574 km/s
True Right ascension
10h 05m 52s
True Declination
0° 00' 00"
Sunlit
Object was in daylight at epoch
Visualization orbit readout
Latitude
Unknown
Longitude
Unknown
Altitude
Unknown
Speed
Unknown
Apparent Right ascension
Unknown
Apparent Declination
Unknown
Sunlit
N/A
Visualization observer readout
Local Sidereal Time
07:13:51
Azimuth
Unknown
Elevation
Unknown
Doppler factor
Unknown
Orbital elements
Apogee altitude
572.586 km
Perigee altitude
567.429 km
Semi-major axis
6,948.144 km
Eccentricity
0.00037
Inclination
69.9993°
RAAN
151.4674°
Arg. of periapsis
267.421°
True anomaly
92.69488°
Mean anomaly
92.6524°
Eccentric anomaly
92.67364°
Mean motion
3.74749 °/min
Orbital period
96.06 mins
BSTAR
0.000010532
Loading maneuver chart data...
Computing Atmospheric mass density...
Loading historical data...
Loading historical data...
Loading historical data...
Loading historical data...
Loading historical data...
Loading historical data...
Loading historical data...

Documentation

Showing up to 5 results
|